Location: *
(38.9555°S, 57.3572°E)
Time: 01:13:51
(UTC+00:00)

Radarsat Rocket - Pass Details

Date: 15 July 2020
Orbit: 934 x 1491 km, 100.6° (Epoch: 06 August)

Event Time Altitude Azimuth Distance (km) Brightness Sun altitude
Rises 14:43:03 0° 168° (SSE) 3,634 6.7 -18.2°
Reaches altitude 10° 14:45:30 10° 170° (S) 2,675 6.1 -18.7°
Maximum altitude 14:51:18 65° 251° (WSW) 1,046 4.3 -19.8°
Drops below altitude 10° 14:57:19 10° 331° (NNW) 2,760 6.9 -20.9°
Sets 14:59:51 0° 333° (NNW) 3,758 7.6 -21.4°
